Tracking 29892 objects as of 21-Nov-2024
HD Live streaming from Space Station
objects crossing your sky now

SMDC ONE 1.2

Track SMDC ONE 1.2 now!
10-day predictions
SMDC ONE 1.2 is classified as:


NORAD ID: 38759
Int'l Code: 2012-048B
Perigee: 461.4 km
Apogee: 649.0 km
Inclination: 64.7 °
Period: 95.6 minutes
Semi major axis: 6926 km
RCS: Unknown
Launch date: September 13, 2012
Source: United States (US)
Launch site: AIR FORCE WESTERN TEST RANGE (AFWTR)
Your satellite tracking list
Your tracking list is empty




NASA's NSSDC Master Catalog

Two Line Element Set (TLE):
1 38759U 12048B   24325.18462062  .00016661  00000-0  93035-3 0  9995
2 38759  64.6592 235.0030 0135436 337.0689  22.4416 15.06110522 29257
Source of the keplerian elements: AFSPC